SL-8 DEB, 1634

Orbit data source: Space-Track

SL-8 DEB, 1634 is space debris in LEO originally from a launch on Mon, 15 Mar 1965 UTC launched from the Tyuratam Missile And Space Complex (TTMTR). Debris objects in space refer to the collection of defunct objects orbiting the Earth. Examples of debris include non-operational satellites, rocket bodies, and fragments generated from explosions, collisions, or faulty payload assembly.

Loading next visibility...
Identifier
1634, 1965-020ED
Orbit
LEO
Country
Flag of CISCIS
Related business
Manufacturer
Unknown
Mission
Spacecraft
Bus & Motor
Unknown
Mass
Unknown
Launch date (UTC)
1965-03-15 (61 years ago)
Launch vehicle
Unknown
Launch site
Tyuratam Missile And Space Complex (TTMTR)
Object type
Payload
Rocket body
Debris
Shape & HBR
Unknown shape, 0.1 m
Radar Cross Section
Small (<0.1 m²)

Expand to show TLE details & history
Last TLE update: 17 hours ago

TLE from 17 hours ago
0 SL-8 DEB
1 01634U 65020ED  26015.66898013  .00000420  00000-0  90602-3 0  9998
2 01634  56.1571 119.0287 0851742 234.7730 117.0558 12.48513115743431
Epoch: 2026-01-15T16:03Z
TLE epoch observation values (Epoch: 2026-01-15T16:03:19.883Z)
Latitude
-0.00006°
Longitude
123.07651°
Altitude
1,818.365 km
Speed
6.82 km/s
True Right ascension
07h 56m 06s
True Declination
0° 00' 00"
Sunlit
Object was in full shadow at epoch
Visualization orbit readout
Latitude
Unknown
Longitude
Unknown
Altitude
Unknown
Speed
Unknown
Apparent Right ascension
Unknown
Apparent Declination
Unknown
Sunlit
N/A
Visualization observer readout
Local Sidereal Time
10:05:20
Azimuth
Unknown
Elevation
Unknown
Doppler factor
Unknown
Orbital elements
Apogee altitude
2,139.032 km
Perigee altitude
802.024 km
Semi-major axis
7,848.665 km
Eccentricity
0.08517
Inclination
56.1571°
RAAN
119.0287°
Arg. of periapsis
234.773°
True anomaly
125.31721°
Mean anomaly
117.0558°
Eccentric anomaly
121.22881°
Mean motion
3.1214 °/min
Orbital period
115.33 mins
BSTAR
0.00090602
Loading maneuver chart data...
Computing Atmospheric mass density...
Loading historical data...
Loading historical data...
Loading historical data...
Loading historical data...
Loading historical data...
Loading historical data...
Loading historical data...

Documentation

Showing up to 5 results
|